P/2020 T3 ( PanSTARRS )

Japanese version
Home page
Updated on February 20, 2021

---------------------------------------------------------------------

* Profile

Discovery Date October 10, 2020
Magnitude 21.3 mag
Discoverer Pan-STARRS 1 telescope (Haleakala)

* Pictures

* Orbital Elements

Epoch 2021 Jan. 26.0 TT = JDT 2459240.5
T 2021 Jan. 20.47140 TT                                 Rudenko
q   1.4366096            (2000.0)            P               Q
n   0.14940619     Peri.  357.04308     +0.32411936     -0.93810536
a   3.5174153      Node    74.02037     +0.87053790     +0.24525219
e   0.5915724      Incl.    7.29586     +0.37028423     +0.24456020
P   6.60
From 148 observations 2020 Sept. 9-2021 Jan. 18, mean residual 0".8.

* Finding Charts

* Magnitudes Graph

        m1 = 12.0 + 5 log d + 25 log r(t - 30)

---------------------------------------------------------------------

The orbital elements are published on M.P.E.C. 2021-B143.
The charts are made with StellaNavigator Ver.10 (AstroArts).
The magnitudes graphs are made with Comet for Windows.

---------------------------------------------------------------------

Copyright(C) Seiichi Yoshida (comet@aerith.net). All rights reserved.